| time (UTC) | temp F | wind direction | speed MPH | gust MPH | rain 1hr in | rain 24hr in | rain mn in | humidity % | barometer mb |
| 20260507183007 | 52 | 303 | 0.0 | 1.0 | 0.00 | 0.00 | 0.00 | 66 | 1016.7 |
| 20260507182005 | 53 | 309 | 0.0 | 2.0 | 0.00 | 0.00 | 0.00 | 64 | 1016.7 |
| 20260507181005 | 53 | 320 | 0.0 | 2.0 | 0.00 | 0.00 | 0.00 | 63 | 1016.7 |
| 20260507180007 | 53 | 323 | 0.0 | 1.0 | 0.00 | 0.00 | 0.00 | 63 | 1016.6 |
| 20260507175005 | 53 | 353 | 0.0 | 2.0 | 0.00 | 0.00 | 0.00 | 62 | 1016.6 |
| 20260507174005 | 54 | 344 | 1.0 | 3.0 | 0.00 | 0.00 | 0.00 | 62 | 1016.4 |
| 20260507173008 | 54 | 341 | 1.0 | 3.0 | 0.00 | 0.00 | 0.00 | 61 | 1016.3 |
| 20260507172005 | 54 | 354 | 2.0 | 5.0 | 0.00 | 0.00 | 0.00 | 62 | 1016.2 |
| 20260507171006 | 54 | 346 | 2.0 | 6.0 | 0.00 | 0.00 | 0.00 | 61 | 1016.2 |
| 20260507170007 | 54 | 9 | 2.0 | 7.0 | 0.00 | 0.00 | 0.00 | 60 | 1016.2 |
| 20260507165006 | 55 | 333 | 3.0 | 6.0 | 0.00 | 0.00 | 0.00 | 60 | 1016.2 |
| 20260507164006 | 55 | 359 | 2.0 | 5.0 | 0.00 | 0.00 | 0.00 | 59 | 1016.1 |
| 20260507163007 | 55 | 350 | 3.0 | 6.0 | 0.00 | 0.00 | 0.00 | 62 | 1016.1 |
| 20260507162005 | 55 | 353 | 4.0 | 7.0 | 0.00 | 0.00 | 0.00 | 62 | 1016.1 |
| 20260507161006 | 55 | 332 | 2.0 | 12.0 | 0.00 | 0.00 | 0.00 | 61 | 1016.1 |
| 20260507160008 | 55 | 4 | 3.0 | 9.0 | 0.00 | 0.00 | 0.00 | 62 | 1016.1 |
| 20260507155005 | 55 | 0 | 4.0 | 9.0 | 0.00 | 0.00 | 0.00 | 62 | 1016.0 |
| 20260507154009 | 56 | 351 | 4.0 | 9.0 | 0.00 | 0.00 | 0.00 | 60 | 1016.0 |
| 20260507153008 | 56 | 338 | 4.0 | 12.0 | 0.00 | 0.00 | 0.00 | 61 | 1016.0 |
| 20260507152005 | 56 | 340 | 5.0 | 12.0 | 0.00 | 0.00 | 0.00 | 59 | 1015.9 |
| 20260507151005 | 56 | 312 | 1.0 | 12.0 | 0.00 | 0.00 | 0.00 | 59 | 1015.7 |
| 20260507150008 | 56 | 296 | 2.0 | 13.0 | 0.00 | 0.00 | 0.00 | 59 | 1015.7 |
| 20260507145005 | 56 | 299 | 1.0 | 12.0 | 0.00 | 0.00 | 0.00 | 55 | 1015.7 |
| 20260507144005 | 56 | 308 | 2.0 | 12.0 | 0.00 | 0.00 | 0.00 | 50 | 1015.7 |
| 20260507143009 | 56 | 298 | 3.0 | 13.0 | 0.00 | 0.00 | 0.00 | 48 | 1015.7 |
| 20260507142006 | 56 | 291 | 2.0 | 12.0 | 0.00 | 0.00 | 0.00 | 49 | 1015.7 |
| 20260507141007 | 56 | 307 | 4.0 | 12.0 | 0.00 | 0.00 | 0.00 | 48 | 1015.7 |
| 20260507140009 | 56 | 302 | 2.0 | 12.0 | 0.00 | 0.00 | 0.00 | 49 | 1015.7 |
| 20260507135006 | 56 | 295 | 6.0 | 14.0 | 0.00 | 0.00 | 0.00 | 45 | 1015.7 |
| 20260507134006 | 56 | 290 | 2.0 | 9.0 | 0.00 | 0.00 | 0.00 | 48 | 1015.7 |
| 20260507133008 | 56 | 301 | 7.0 | 12.0 | 0.00 | 0.00 | 0.00 | 47 | 1015.7 |
| 20260507132006 | 56 | 292 | 3.0 | 14.0 | 0.00 | 0.00 | 0.00 | 53 | 1015.7 |
| 20260507131006 | 56 | 310 | 7.0 | 13.0 | 0.00 | 0.00 | 0.00 | 50 | 1015.7 |
| 20260507130008 | 56 | 319 | 6.0 | 12.0 | 0.00 | 0.00 | 0.00 | 49 | 1015.7 |
| 20260507125006 | 56 | 297 | 1.0 | 9.0 | 0.00 | 0.00 | 0.00 | 53 | 1015.7 |
| 20260507124006 | 56 | 284 | 5.0 | 13.0 | 0.00 | 0.00 | 0.00 | 50 | 1015.6 |
| 20260507123009 | 56 | 315 | 3.0 | 14.0 | 0.00 | 0.00 | 0.00 | 55 | 1015.6 |
| 20260507122006 | 55 | 306 | 10.0 | 14.0 | 0.00 | 0.00 | 0.00 | 57 | 1015.6 |
| 20260507121006 | 55 | 302 | 10.0 | 16.0 | 0.00 | 0.00 | 0.00 | 50 | 1015.5 |
| 20260507120008 | 56 | 305 | 9.0 | 14.0 | 0.00 | 0.00 | 0.00 | 57 | 1015.5 |
| 20260507115006 | 55 | 294 | 5.0 | 13.0 | 0.00 | 0.00 | 0.00 | 56 | 1015.3 |
| 20260507114006 | 55 | 304 | 8.0 | 14.0 | 0.00 | 0.00 | 0.00 | 56 | 1015.3 |
| 20260507113008 | 55 | 301 | 7.0 | 14.0 | 0.00 | 0.00 | 0.00 | 57 | 1015.2 |
| 20260507112005 | 55 | 295 | 9.0 | 14.0 | 0.00 | 0.00 | 0.00 | 54 | 1015.3 |
| 20260507111006 | 55 | 296 | 2.0 | 15.0 | 0.00 | 0.00 | 0.00 | 59 | 1015.2 |
| 20260507110008 | 55 | 302 | 8.0 | 14.0 | 0.00 | 0.00 | 0.00 | 57 | 1015.2 |
| 20260507105005 | 55 | 296 | 8.0 | 14.0 | 0.00 | 0.00 | 0.00 | 61 | 1015.2 |
| 20260507104005 | 55 | 297 | 9.0 | 13.0 | 0.00 | 0.00 | 0.00 | 65 | 1015.2 |
| 20260507103008 | 55 | 265 | 1.0 | 12.0 | 0.00 | 0.00 | 0.00 | 70 | 1015.1 |
| 20260507102007 | 55 | 302 | 2.0 | 10.0 | 0.00 | 0.00 | 0.00 | 74 | 1015.1 |
| 20260507101006 | 55 | 301 | 5.0 | 12.0 | 0.00 | 0.00 | 0.00 | 74 | 1015.1 |
| 20260507100008 | 55 | 274 | 2.0 | 12.0 | 0.00 | 0.00 | 0.00 | 75 | 1015.1 |
| 20260507095005 | 54 | 290 | 3.0 | 12.0 | 0.00 | 0.00 | 0.00 | 76 | 1015.1 |
| 20260507094006 | 54 | 300 | 3.0 | 13.0 | 0.00 | 0.00 | 0.00 | 74 | 1015.0 |
| 20260507093008 | 54 | 316 | 3.0 | 12.0 | 0.00 | 0.00 | 0.00 | 73 | 1014.8 |
| 20260507092006 | 54 | 287 | 1.0 | 10.0 | 0.00 | 0.00 | 0.00 | 71 | 1014.7 |
| 20260507091006 | 54 | 225 | 1.0 | 5.0 | 0.00 | 0.00 | 0.00 | 70 | 1014.7 |
| 20260507090007 | 54 | 267 | 1.0 | 3.0 | 0.00 | 0.00 | 0.00 | 72 | 1014.7 |
| 20260507085005 | 53 | 234 | 0.0 | 3.0 | 0.00 | 0.00 | 0.00 | 70 | 1014.6 |
| 20260507084005 | 52 | 304 | 1.0 | 6.0 | 0.00 | 0.00 | 0.00 | 69 | 1014.6 |
| 20260507083008 | 52 | 246 | 0.0 | 3.0 | 0.00 | 0.00 | 0.00 | 70 | 1014.6 |
| 20260507082005 | 51 | 298 | 0.0 | 2.0 | 0.00 | 0.00 | 0.00 | 73 | 1014.6 |
| 20260507081006 | 51 | 245 | 0.0 | 3.0 | 0.00 | 0.00 | 0.00 | 71 | 1014.4 |
| 20260507080008 | 50 | 279 | 0.0 | 1.0 | 0.00 | 0.00 | 0.00 | 72 | 1014.2 |
| 20260507075005 | 50 | 309 | 0.0 | 1.0 | 0.00 | 0.00 | 0.00 | 68 | 1014.1 |
| 20260507074005 | 49 | 227 | 0.0 | 1.0 | 0.00 | 0.00 | 0.00 | 71 | 1014.1 |
| 20260507073009 | 48 | 226 | 0.0 | 1.0 | 0.00 | 0.00 | 0.00 | 71 | 1014.1 |
| 20260507072006 | 48 | 264 | 0.0 | 0.0 | 0.00 | 0.00 | 0.00 | 78 | 1014.1 |
| 20260507071006 | 47 | 259 | 0.0 | 0.0 | 0.00 | 0.00 | 0.00 | 80 | 1014.1 |
| 20260507070011 | 46 | 243 | 0.0 | 0.0 | 0.00 | 0.00 | 0.00 | 85 | 1014.0 |
| 20260507065006 | 45 | 243 | 0.0 | 0.0 | 0.00 | 0.00 | 0.00 | 89 | 1014.0 |
| 20260507064005 | 45 | 244 | 0.0 | 0.0 | 0.00 | 0.00 | 0.00 | 91 | 1014.0 |
| 20260507063008 | 45 | 244 | 0.0 | 0.0 | 0.00 | 0.00 | 0.00 | 92 | 1013.8 |
| 20260507062006 | 45 | 244 | 0.0 | 0.0 | 0.00 | 0.00 | 0.00 | 92 | 1013.7 |
| 20260507061005 | 44 | 244 | 0.0 | 0.0 | 0.00 | 0.00 | 0.00 | 93 | 1013.8 |
| 20260507060008 | 44 | 245 | 0.0 | 0.0 | 0.00 | 0.00 | 0.00 | 92 | 1013.6 |
| 20260507055006 | 44 | 139 | 0.0 | 0.0 | 0.00 | 0.00 | 0.00 | 93 | 1013.6 |
| 20260507054006 | 43 | 139 | 0.0 | 0.0 | 0.00 | 0.00 | 0.00 | 92 | 1013.6 |
| 20260507053008 | 43 | 139 | 0.0 | 0.0 | 0.00 | 0.00 | 0.00 | 93 | 1013.6 |
| 20260507052005 | 42 | 139 | 0.0 | 0.0 | 0.00 | 0.00 | 0.00 | 92 | 1013.5 |
| 20260507051006 | 42 | 139 | 0.0 | 0.0 | 0.00 | 0.00 | 0.00 | 92 | 1013.5 |
| 20260507050008 | 42 | 139 | 0.0 | 0.0 | 0.00 | 0.00 | 0.00 | 92 | 1013.3 |
| 20260507045006 | 41 | 139 | 0.0 | 0.0 | 0.00 | 0.00 | 0.00 | 92 | 1013.2 |
| 20260507044006 | 40 | 139 | 0.0 | 0.0 | 0.00 | 0.00 | 0.00 | 92 | 1013.1 |
| 20260507043007 | 40 | 139 | 0.0 | 0.0 | 0.00 | 0.00 | 0.00 | 92 | 1013.1 |
| 20260507042006 | 39 | 139 | 0.0 | 0.0 | 0.00 | 0.00 | 0.00 | 92 | 1013.0 |
| 20260507041007 | 39 | 139 | 0.0 | 0.0 | 0.00 | 0.00 | 0.00 | 92 | 1013.1 |
| 20260507040008 | 39 | 139 | 0.0 | 0.0 | 0.00 | 0.00 | 0.00 | 92 | 1013.0 |
| 20260507035008 | 39 | 139 | 0.0 | 0.0 | 0.00 | 0.00 | 0.00 | 92 | 1013.0 |
| 20260507034006 | 39 | 139 | 0.0 | 0.0 | 0.00 | 0.00 | 0.00 | 91 | 1013.0 |
| 20260507033010 | 38 | 139 | 0.0 | 0.0 | 0.00 | 0.00 | 0.00 | 91 | 1012.9 |
| 20260507032007 | 39 | 139 | 0.0 | 0.0 | 0.00 | 0.00 | 0.00 | 91 | 1012.8 |
| 20260507031006 | 39 | 139 | 0.0 | 0.0 | 0.00 | 0.00 | 0.00 | 91 | 1012.7 |
| 20260507030007 | 39 | 139 | 0.0 | 0.0 | 0.00 | 0.00 | 0.00 | 91 | 1012.7 |
| 20260507025006 | 39 | 139 | 0.0 | 0.0 | 0.00 | 0.00 | 0.00 | 91 | 1012.5 |
| 20260507024006 | 39 | 139 | 0.0 | 0.0 | 0.00 | 0.00 | 0.00 | 91 | 1012.5 |
| 20260507023008 | 39 | 139 | 0.0 | 0.0 | 0.00 | 0.00 | 0.00 | 91 | 1012.5 |
| 20260507022006 | 39 | 139 | 0.0 | 0.0 | 0.00 | 0.00 | 0.00 | 90 | 1012.4 |
| 20260507021006 | 39 | 139 | 0.0 | 0.0 | 0.00 | 0.00 | 0.00 | 90 | 1012.5 |
| 20260507020009 | 39 | 139 | 0.0 | 0.0 | 0.00 | 0.00 | 0.00 | 90 | 1012.5 |
| 20260507015006 | 39 | 139 | 0.0 | 0.0 | 0.00 | 0.00 | 0.00 | 90 | 1012.3 |
| 20260507014005 | 39 | 139 | 0.0 | 0.0 | 0.00 | 0.00 | 0.00 | 90 | 1012.4 |
| 20260507013008 | 39 | 139 | 0.0 | 0.0 | 0.00 | 0.00 | 0.00 | 89 | 1012.2 |
| 20260507012005 | 39 | 139 | 0.0 | 0.0 | 0.00 | 0.00 | 0.00 | 89 | 1012.1 |
| 20260507011006 | 39 | 139 | 0.0 | 0.0 | 0.00 | 0.00 | 0.00 | 89 | 1012.1 |
| 20260507010008 | 39 | 139 | 0.0 | 0.0 | 0.00 | 0.00 | 0.00 | 89 | 1012.1 |
| 20260507005005 | 39 | 139 | 0.0 | 0.0 | 0.00 | 0.00 | 0.00 | 88 | 1012.1 |
| 20260507004005 | 40 | 139 | 0.0 | 0.0 | 0.00 | 0.00 | 0.00 | 89 | 1012.0 |
| 20260507003008 | 40 | 139 | 0.0 | 0.0 | 0.00 | 0.00 | 0.00 | 89 | 1012.0 |
| 20260507002005 | 40 | 139 | 0.0 | 0.0 | 0.00 | 0.00 | 0.00 | 88 | 1012.0 |
| 20260507001006 | 40 | 139 | 0.0 | 0.0 | 0.00 | 0.00 | 0.00 | 88 | 1012.0 |
| 20260507000008 | 40 | 139 | 0.0 | 0.0 | 0.00 | 0.00 | 0.00 | 88 | 1012.0 |
| 20260506235006 | 40 | 139 | 0.0 | 0.0 | 0.00 | 0.00 | 0.00 | 87 | 1012.0 |
| 20260506234006 | 40 | 139 | 0.0 | 0.0 | 0.00 | 0.00 | 0.00 | 87 | 1012.0 |
| 20260506233007 | 40 | 139 | 0.0 | 0.0 | 0.00 | 0.00 | 0.00 | 86 | 1012.0 |
| 20260506232006 | 40 | 139 | 0.0 | 0.0 | 0.00 | 0.00 | 0.00 | 86 | 1012.0 |
| 20260506231005 | 40 | 139 | 0.0 | 0.0 | 0.00 | 0.00 | 0.00 | 86 | 1012.0 |
| 20260506230007 | 40 | 138 | 0.0 | 0.0 | 0.00 | 0.00 | 0.00 | 86 | 1011.9 |
| 20260506225006 | 41 | 138 | 0.0 | 0.0 | 0.00 | 0.00 | 0.00 | 85 | 1011.9 |
| 20260506224006 | 41 | 138 | 0.0 | 0.0 | 0.00 | 0.00 | 0.00 | 85 | 1011.9 |
| 20260506223008 | 41 | 138 | 0.0 | 0.0 | 0.00 | 0.00 | 0.00 | 84 | 1011.9 |
| 20260506222005 | 41 | 138 | 0.0 | 0.0 | 0.00 | 0.00 | 0.00 | 84 | 1011.9 |
| 20260506221005 | 42 | 138 | 0.0 | 0.0 | 0.00 | 0.00 | 0.00 | 83 | 1011.9 |
| 20260506220008 | 42 | 138 | 0.0 | 0.0 | 0.00 | 0.00 | 0.00 | 83 | 1011.9 |
| 20260506215006 | 42 | 138 | 0.0 | 0.0 | 0.00 | 0.00 | 0.00 | 83 | 1011.8 |
| 20260506214005 | 42 | 138 | 0.0 | 0.0 | 0.00 | 0.00 | 0.00 | 82 | 1011.6 |
| 20260506213008 | 43 | 138 | 0.0 | 0.0 | 0.00 | 0.00 | 0.00 | 82 | 1011.5 |
| 20260506212006 | 43 | 138 | 0.0 | 1.0 | 0.00 | 0.00 | 0.00 | 82 | 1011.5 |
| 20260506211005 | 44 | 138 | 0.0 | 1.0 | 0.00 | 0.00 | 0.00 | 82 | 1011.4 |
| 20260506210008 | 44 | 130 | 0.0 | 1.0 | 0.00 | 0.00 | 0.00 | 82 | 1011.4 |
| 20260506205006 | 44 | 141 | 0.0 | 2.0 | 0.00 | 0.00 | 0.00 | 81 | 1011.4 |
| 20260506204006 | 45 | 141 | 0.0 | 2.0 | 0.00 | 0.00 | 0.00 | 80 | 1011.1 |
| 20260506203008 | 45 | 139 | 1.0 | 3.0 | 0.00 | 0.00 | 0.00 | 79 | 1011.1 |
| 20260506202005 | 45 | 142 | 1.0 | 6.0 | 0.00 | 0.00 | 0.00 | 78 | 1011.0 |
| 20260506201006 | 45 | 141 | 0.0 | 3.0 | 0.00 | 0.00 | 0.00 | 76 | 1011.0 |
| 20260506200008 | 45 | 138 | 0.0 | 3.0 | 0.00 | 0.00 | 0.00 | 75 | 1010.9 |
| 20260506195005 | 46 | 131 | 0.0 | 2.0 | 0.00 | 0.00 | 0.00 | 74 | 1010.9 |
| 20260506194006 | 46 | 131 | 1.0 | 2.0 | 0.00 | 0.00 | 0.00 | 72 | 1010.9 |
| 20260506193008 | 46 | 130 | 0.0 | 3.0 | 0.00 | 0.00 | 0.00 | 71 | 1010.9 |
| 20260506192005 | 47 | 133 | 0.0 | 3.0 | 0.00 | 0.00 | 0.00 | 70 | 1010.9 |
| 20260506191005 | 48 | 143 | 0.0 | 1.0 | 0.00 | 0.00 | 0.00 | 68 | 1010.8 |
| 20260506190018 | 48 | 146 | 0.0 | 2.0 | 0.00 | 0.00 | 0.00 | 66 | 1010.7 |
| 20260506185005 | 49 | 143 | 0.0 | 2.0 | 0.00 | 0.00 | 0.00 | 64 | 1010.5 |
| 20260506184006 | 50 | 153 | 0.0 | 3.0 | 0.00 | 0.00 | 0.00 | 63 | 1010.4 |